Location: Caltech
(34.1382°N, 118.1253°W)
Time: 12:37:24
(UTC-07:00)

Cosmos 1833 - Visible Passes

Search period start: 24 May 2016 00:00
Search period end: 03 June 2016 00:00
Orbit: 833 x 865 km, 70.9° (Epoch: 23 May)

Date Brightness Start Highest point End Pass type
(mag) Time Alt. Az. Time Alt. Az. Time Alt. Az.
24 May 4.8 03:52:45 20° S 03:56:31 52° ESE 04:02:05 10° NNE visible
25 May 4.8 03:40:44 26° S 03:43:49 52° ESE 03:49:22 10° NNE visible
26 May 4.8 03:28:40 31° SSE 03:31:06 51° ESE 03:36:40 10° NNE visible
26 May 5.8 05:11:26 10° WSW 05:15:36 20° WNW 05:19:47 10° N visible
27 May 4.8 03:16:32 37° SSE 03:18:25 51° ESE 03:23:57 10° NNE visible
27 May 5.8 04:58:42 10° WSW 05:02:53 20° WNW 05:07:06 10° N visible
28 May 4.8 03:04:22 42° SE 03:05:42 50° ESE 03:11:15 10° NNE visible
28 May 5.8 04:46:21 11° WSW 04:50:11 21° WNW 04:54:24 10° N visible
29 May 4.7 02:52:09 46° SE 02:53:00 50° ESE 02:58:33 10° NNE visible
29 May 5.8 04:34:08 13° W 04:37:28 21° WNW 04:41:43 10° N visible
30 May 4.7 02:39:54 48° ESE 02:40:18 49° ESE 02:45:50 10° NNE visible
30 May 5.8 04:21:53 15° W 04:24:46 21° WNW 04:29:02 10° N visible
31 May 4.7 02:27:36 49° ESE 02:27:36 49° ESE 02:33:07 10° NNE visible
31 May 5.8 04:09:35 16° W 04:12:03 21° WNW 04:16:20 10° N visible
01 Jun 4.8 02:15:16 48° E 02:15:16 48° E 02:20:24 10° NNE visible
01 Jun 5.8 03:57:15 18° W 03:59:20 21° WNW 04:03:39 10° N visible
02 Jun 4.9 02:02:54 45° E 02:02:54 45° E 02:07:42 10° NNE visible
02 Jun 5.8 03:44:52 19° W 03:46:38 21° WNW 03:50:58 10° N visible
